Lykens, Pennsylvania
Current Conditions -  °F | °C
As of 11:58 AM on Thursday 30 Oct 2014 (Local Time) from KMUI Reporting Station
Scattered Clouds Scattered Clouds  
Wind Chill: 55°   Ceiling: Unl
Heat Index: 55°   Visibility: 10mi
Dew Point: 34°   Wind: 6mph
Humidity: 44%   Direction: NA
Pressure: 30.06"   Gusts: NA
Location:  40.57°N, 76.7°W
Report Text: KMUI 301558Z VRB05KT 10SM SCT040 13/01 A3006 RMK AO2A SLPNO WND DATA ESTMD ALSTG ESTMD $
Loading
Personal Weather Stations






























Interactive Weather Map
Tropical Storm Tracking
New forecast layout! Learn more

10-Day Weather Forecast

Advertisements
Track Severe Weather on mobile